Weather History for KFAR - May, 2014

Change the Weather History Date:

Wednesday, May 7, 2014

  Actual Average Record
Temperature  
Mean Temperature 54 °F 54 °F  
Max Temperature 63 °F 67 °F 91 °F (1992)
Min Temperature 45 °F 42 °F 21 °F (1885)
Degree Days  
Heating Degree Days 11 11  
Month to date heating degree days 112 86  
Since 1 July heating degree days 9438 8542  
Cooling Degree Days 0 1  
Month to date cooling degree days 0 3  
Year to date cooling degree days 0 6  
Growing Degree Days 4 (Base 50)    
Moisture  
Dew Point 43 °F    
Average Humidity 70    
Maximum Humidity 93    
Minimum Humidity 46    
Precipitation  
Precipitation T in 0.08 in 1.05 in (2010)
Month to date precipitation 0.04 0.54  
Year to date precipitation 5.07 4.54  
Snow  
Snow 0.00 in 0.00 in T in (2010)
Month to date snowfall 0.0 0.0  
Since 1 July snowfall 34.9 50.4  
Snow Depth 0.00 in    
Sea Level Pressure  
Sea Level Pressure 29.78 in    
Wind  
Wind Speed 11 mph (NE)    
Max Wind Speed 22 mph    
Max Gust Speed 25 mph    
Visibility 10 miles    
Events Rain    
T = Trace of Precipitation, MM = Missing Value Source: NWS Daily Summary

Daily Weather History Graph

Daily Weather History Graph

Search for Another Location

Airport or City:

Trip Planner

Search our weather history database for the weather conditions in past years. The results will help you decide how hot, cold, wet, or windy it might be!

Date:

Astronomy

May. 07, 2014 Rise Set
Actual Time 6:02 AM CDT 8:45 PM CDT
Civil Twilight 5:28 AM CDT 9:20 PM CDT
Nautical Twilight 4:44 AM CDT 10:04 PM CDT
Astronomical Twilight 3:52 AM CDT 10:56 PM CDT
Moon 1:25 PM CDT 2:29 AM CDT
Length of Visible Light 15h 52m
Length of Day
14h 42m
First Quarter, 55% of the Moon is Illuminated
May 7
First Quarter
May 14
Full
May 21
Last Quarter
May 28
New
Jun 5
First Quarter

Hourly Weather History & Observations

Time (CDT) Temp. Windchill Dew Point Humidity Pressure Visibility Wind Dir Wind Speed Gust Speed Precip Events Conditions
12:53 AM 55.0 °F - 42.1 °F 62% 29.80 in 10.0 mi East 10.4 mph - N/A   Overcast
1:53 AM 54.0 °F - 41.0 °F 62% 29.78 in 10.0 mi East 12.7 mph - N/A   Overcast
2:53 AM 53.1 °F - 41.0 °F 64% 29.77 in 10.0 mi East 10.4 mph - N/A   Overcast
3:53 AM 51.8 °F - 41.0 °F 67% 29.77 in 10.0 mi ENE 6.9 mph - N/A   Overcast
4:53 AM 52.0 °F - 39.9 °F 63% 29.77 in 10.0 mi East 12.7 mph - N/A   Overcast
5:53 AM 51.1 °F - 39.9 °F 66% 29.78 in 10.0 mi ESE 11.5 mph - N/A   Overcast
6:53 AM 51.8 °F - 39.2 °F 62% 29.78 in 10.0 mi East 9.2 mph - N/A   Overcast
7:53 AM 52.0 °F - 39.9 °F 63% 29.79 in 10.0 mi East 9.2 mph - N/A   Overcast
8:53 AM 54.0 °F - 39.9 °F 59% 29.78 in 10.0 mi ESE 15.0 mph - N/A   Overcast
9:53 AM 54.0 °F - 39.9 °F 59% 29.78 in 10.0 mi SE 10.4 mph - N/A   Overcast
10:53 AM 55.0 °F - 41.0 °F 59% 29.79 in 10.0 mi East 5.8 mph - N/A   Overcast
11:53 AM 55.9 °F - 39.9 °F 55% 29.77 in 10.0 mi East 6.9 mph - N/A   Overcast
12:53 PM 57.2 °F - 41.0 °F 55% 29.75 in 10.0 mi East 9.2 mph - N/A   Mostly Cloudy
1:53 PM 57.9 °F - 41.0 °F 53% 29.72 in 10.0 mi NNE 4.6 mph - N/A   Mostly Cloudy
2:53 PM 62.1 °F - 41.0 °F 46% 29.72 in 10.0 mi NNW 5.8 mph - N/A   Scattered Clouds
3:53 PM 60.1 °F - 46.0 °F 60% 29.74 in 10.0 mi NNW 18.4 mph - N/A   Scattered Clouds
4:53 PM 53.1 °F - 48.0 °F 83% 29.77 in 8.0 mi North 19.6 mph - 0.00 in Rain Light Rain
5:53 PM 54.0 °F - 48.0 °F 80% 29.76 in 10.0 mi North 17.3 mph - 0.00 in   Overcast
6:53 PM 53.1 °F - 48.0 °F 83% 29.78 in 10.0 mi North 12.7 mph - N/A   Overcast
7:53 PM 52.0 °F - 46.0 °F 80% 29.78 in 10.0 mi NE 10.4 mph - N/A   Scattered Clouds
8:53 PM 48.9 °F - 45.0 °F 86% 29.80 in 10.0 mi North 6.9 mph - N/A   Clear
9:53 PM 48.0 °F - 45.0 °F 89% 29.80 in 10.0 mi North 10.4 mph - N/A   Clear
10:43 PM 46.9 °F - 45.0 °F 93% 29.78 in 9.0 mi North 9.2 mph - N/A   Partly Cloudy
10:53 PM 48.0 °F - 45.0 °F 89% 29.79 in 9.0 mi North 12.7 mph - N/A   Scattered Clouds
11:53 PM 46.0 °F 40.6 °F 44.1 °F 93% 29.80 in 6.0 mi NNW 11.5 mph - N/A   Partly Cloudy